CW2931 Weather Reports


time (UTC)temp
C
wind
direction
speed
KPH
gust
KPH
rain 1hr
cm
rain 24hr
cm
rain mn
cm
humidity
%
barometer
mb
20260506163604 13 267 0.0 0.0 0.00 0.08 0.00 47 1011.6
20260506163104 13 1 0.0 0.0 0.00 0.08 0.00 47 1011.6
20260506162604 13 27 0.0 0.0 0.00 0.08 0.00 47 1011.7
20260506161604 13 344 0.0 0.0 0.00 0.08 0.00 47 1011.6
20260506161104 13 321 0.0 0.0 0.00 0.08 0.00 48 1011.6
20260506160604 13 333 0.0 0.0 0.00 0.08 0.00 48 1011.5
20260506160104 13 296 0.0 0.0 0.00 0.08 0.00 45 1011.4
20260506155604 13 291 0.0 0.0 0.00 0.08 0.00 43 1011.5
20260506155104 13 311 0.0 0.0 0.00 0.08 0.00 45 1011.4
20260506154604 13 297 0.0 0.0 0.00 0.08 0.00 44 1011.3
20260506153604 13 227 0.0 0.0 0.00 0.08 0.00 44 1011.4
20260506153104 13 254 0.0 0.0 0.00 0.08 0.00 45 1011.3
20260506152604 13 285 0.0 0.0 0.00 0.08 0.00 44 1011.3
20260506152104 13 301 0.0 0.0 0.00 0.08 0.00 43 1011.1
20260506151604 13 305 0.0 0.0 0.00 0.08 0.00 45 1011.1
20260506151104 13 268 0.0 0.0 0.00 0.08 0.00 46 1011.0
20260506150604 13 322 0.0 0.0 0.00 0.08 0.00 47 1011.1
20260506150104 13 327 0.0 0.0 0.00 0.08 0.00 47 1011.0
20260506144604 13 318 0.0 0.0 0.00 0.08 0.00 50 1011.0
20260506143604 13 346 0.0 0.0 0.00 0.08 0.00 52 1011.0
20260506143104 13 246 0.0 0.0 0.00 0.08 0.00 53 1010.9
20260506141604 12 268 0.0 0.0 0.00 0.08 0.00 56 1011.0
20260506141104 12 347 0.0 0.0 0.00 0.08 0.00 56 1010.9
20260506140104 12 307 0.0 0.0 0.00 0.08 0.00 59 1010.6
20260506135604 12 317 0.0 0.0 0.00 0.08 0.00 59 1010.6
20260506135104 12 318 0.0 0.0 0.00 0.08 0.00 59 1010.7
20260506134604 12 351 0.0 0.0 0.00 0.08 0.00 61 1010.6
20260506134103 12 271 0.0 0.0 0.00 0.08 0.00 62 1010.6
20260506133604 12 275 0.0 0.0 0.00 0.08 0.00 64 1010.5
20260506132604 12 323 0.0 0.0 0.00 0.08 0.00 67 1010.4
20260506131104 11 294 0.0 0.0 0.00 0.08 0.00 71 1010.3
20260506130605 11 294 0.0 0.0 0.00 0.08 0.00 72 1010.0
20260506130104 11 311 0.0 0.0 0.00 0.08 0.00 74 1009.9
20260506125604 10 309 0.0 0.0 0.00 0.08 0.00 75 1010.0
20260506125104 10 308 0.0 0.0 0.00 0.08 0.00 76 1010.1
20260506124104 9 301 0.0 0.0 0.00 0.08 0.00 77 1009.9
20260506123603 9 267 0.0 0.0 0.00 0.08 0.00 78 1009.9
20260506123104 8 283 0.0 0.0 0.00 0.08 0.00 79 1009.8
20260506122604 8 291 0.0 0.0 0.00 0.08 0.00 79 1009.8
20260506122104 8 255 0.0 0.0 0.00 0.08 0.00 80 1009.6
20260506121604 8 258 0.0 0.0 0.00 0.08 0.00 80 1009.6
20260506121104 8 257 0.0 0.0 0.00 0.08 0.00 80 1009.7
20260506120104 8 255 0.0 0.0 0.00 0.08 0.00 81 1009.5
20260506115103 8 252 0.0 0.0 0.00 0.08 0.00 82 1009.4
20260506114604 8 247 0.0 0.0 0.00 0.08 0.00 83 1009.4
20260506114104 8 245 0.0 0.0 0.00 0.08 0.00 83 1009.3
20260506113103 8 251 0.0 0.0 0.00 0.08 0.00 83 1009.2
20260506112604 8 255 0.0 0.0 0.00 0.08 0.00 84 1009.1
20260506112104 8 256 0.0 0.0 0.00 0.08 0.00 84 1009.0
20260506110604 8 257 0.0 0.0 0.00 0.08 0.00 85 1008.8
20260506110104 8 257 0.0 0.0 0.00 0.08 0.00 85 1008.8
20260506105604 8 257 0.0 0.0 0.00 0.08 0.00 85 1008.8
20260506105104 8 257 0.0 0.0 0.00 0.08 0.00 85 1008.7
20260506104604 8 252 0.0 0.0 0.00 0.08 0.00 85 1008.7
20260506104104 8 252 0.0 0.0 0.00 0.08 0.00 85 1008.6
20260506103106 8 252 0.0 0.0 0.00 0.08 0.00 85 1008.3
20260506102604 8 252 0.0 0.0 0.00 0.08 0.00 85 1008.2
20260506102104 8 252 0.0 0.0 0.00 0.08 0.00 85 1008.2
20260506101104 8 252 0.0 0.0 0.00 0.08 0.00 85 1007.9
20260506100604 8 252 0.0 0.0 0.00 0.08 0.00 85 1007.8
20260506100103 8 252 0.0 0.0 0.00 0.08 0.00 85 1007.9
20260506095104 8 252 0.0 0.0 0.00 0.08 0.00 85 1008.2
20260506094104 8 252 0.0 0.0 0.00 0.08 0.00 85 1008.0
20260506093604 8 252 0.0 0.0 0.00 0.08 0.00 85 1007.8
20260506092603 8 252 0.0 0.0 0.00 0.08 0.00 85 1008.0
20260506092104 8 252 0.0 0.0 0.00 0.08 0.00 86 1007.9
20260506091604 8 252 0.0 0.0 0.00 0.08 0.00 86 1007.9
20260506091104 8 252 0.0 0.0 0.00 0.08 0.00 86 1007.7
20260506090604 8 252 0.0 0.0 0.00 0.08 0.00 86 1007.7
20260506085605 8 252 0.0 0.0 0.00 0.08 0.00 86 1007.6
20260506085104 8 252 0.0 0.0 0.00 0.08 0.00 86 1007.7
20260506084604 8 252 0.0 0.0 0.00 0.08 0.00 86 1007.8
20260506084104 8 252 0.0 0.0 0.00 0.08 0.00 86 1007.8
20260506083604 8 252 0.0 0.0 0.00 0.08 0.00 86 1007.9
20260506083103 8 252 0.0 0.0 0.00 0.08 0.00 86 1007.7
20260506082604 8 252 0.0 0.0 0.00 0.08 0.00 86 1007.6
20260506082103 8 252 0.0 0.0 0.00 0.08 0.00 86 1007.5
20260506081603 8 252 0.0 0.0 0.00 0.08 0.00 86 1007.6
20260506080604 8 252 0.0 0.0 0.00 0.08 0.00 86 1007.4
20260506080104 8 252 0.0 0.0 0.00 0.08 0.00 86 1007.5
20260506073104 8 252 0.0 0.0 0.00 0.08 0.00 86 1007.7
20260506072603 8 252 0.0 0.0 0.00 0.08 0.00 86 1007.7
20260506072103 8 252 0.0 0.0 0.00 0.08 0.00 86 1007.6
20260506071603 8 252 0.0 0.0 0.00 0.08 0.00 86 1007.4
20260506071104 8 251 0.0 0.0 0.00 0.08 0.00 86 1007.6
20260506070603 8 251 0.0 0.0 0.00 0.08 0.00 86 1007.6
20260506070104 8 251 0.0 0.0 0.00 0.08 0.00 86 1007.7
20260506062104 8 251 0.0 0.0 0.00 0.08 0.00 86 1008.2
20260506061604 8 251 0.0 0.0 0.00 0.08 0.00 86 1008.1
20260506061104 8 251 0.0 0.0 0.00 0.10 0.00 86 1007.9
20260506060604 9 251 0.0 0.0 0.00 0.10 0.00 86 1008.1
20260506051105 9 239 0.0 0.0 0.00 0.13 0.00 86 1008.1
20260506050605 9 237 0.0 0.0 0.00 0.13 0.00 86 1008.1
20260506045105 9 235 0.0 0.0 0.00 0.13 0.00 85 1008.0
20260506044605 9 235 0.0 0.0 0.00 0.13 0.00 85 1008.1
20260506043605 9 252 0.0 0.0 0.00 0.15 0.00 85 1008.0
20260506043105 9 252 0.0 0.0 0.00 0.15 0.00 85 1008.0
20260506042605 9 252 0.0 0.0 0.00 0.15 0.00 84 1008.1
20260506042106 9 252 0.0 0.0 0.03 0.15 0.00 84 1008.1
20260506041606 9 252 0.0 0.0 0.03 0.15 0.00 84 1008.1
20260506041105 9 253 0.0 0.0 0.03 0.15 0.00 83 1008.0
20260506040606 9 253 0.0 0.0 0.03 0.15 0.00 83 1007.7
20260506040105 9 253 0.0 0.0 0.03 0.15 0.00 82 1007.6
20260506035605 9 253 0.0 0.0 0.03 0.15 0.15 81 1007.6
20260506035105 9 252 0.0 0.0 0.03 0.15 0.15 81 1007.6
20260506034605 9 252 0.0 0.0 0.03 0.15 0.15 81 1007.5
20260506034105 9 252 0.0 0.0 0.03 0.15 0.15 81 1007.6
20260506033606 9 252 0.0 0.0 0.03 0.15 0.15 81 1007.6
20260506033106 9 252 0.0 0.0 0.03 0.15 0.15 80 1007.6
20260506032105 9 252 0.0 0.0 0.03 0.13 0.13 80 1007.9
20260506031606 10 252 0.0 0.0 0.03 0.13 0.13 80 1008.0
20260506031105 10 252 0.0 0.0 0.03 0.13 0.13 79 1008.0
20260506030105 10 252 0.0 0.0 0.03 0.13 0.13 78 1008.0
20260506025105 10 252 0.0 0.0 0.05 0.13 0.13 77 1008.0
20260506024105 10 253 0.0 0.0 0.05 0.13 0.13 74 1008.1
20260506023605 10 253 0.0 0.0 0.05 0.13 0.13 73 1008.0
20260506022605 11 253 0.0 0.0 0.03 0.10 0.10 70 1008.0
20260506022105 11 252 0.0 0.0 0.03 0.10 0.10 70 1008.0
20260506021605 11 252 0.0 0.0 0.03 0.10 0.10 68 1008.0
20260506021106 11 252 0.0 0.0 0.03 0.10 0.10 67 1007.9
20260506015605 11 252 0.0 0.0 0.03 0.10 0.10 64 1007.6
20260506014605 11 248 0.0 0.0 0.00 0.08 0.08 63 1007.5
20260506014105 12 254 0.0 0.0 0.00 0.08 0.08 63 1007.4
20260506013606 12 254 0.0 0.0 0.00 0.08 0.08 62 1007.4
20260506013105 12 255 0.0 0.0 0.00 0.08 0.08 61 1007.4
20260506012105 12 256 0.0 0.0 0.00 0.08 0.08 60 1007.1
20260506011606 12 256 0.0 0.0 0.00 0.08 0.08 59 1007.0
20260506011106 12 256 0.0 0.0 0.00 0.08 0.08 57 1007.0
20260506010605 12 256 0.0 0.0 0.00 0.08 0.08 56 1007.0
20260506010106 12 256 0.0 0.0 0.00 0.08 0.08 55 1007.0
20260506005605 12 252 0.0 0.0 0.00 0.08 0.08 54 1007.0
20260506005105 12 254 0.0 0.0 0.00 0.08 0.08 54 1007.1
20260506004605 12 250 0.0 0.0 0.00 0.10 0.08 54 1007.1
20260506004105 12 270 0.0 0.0 0.00 0.10 0.08 53 1007.2
20260506002105 12 265 0.0 0.0 0.00 0.10 0.08 51 1007.2
20260506000605 12 266 0.0 0.0 0.00 0.18 0.08 52 1007.0
20260506000106 12 264 0.0 0.0 0.00 0.20 0.08 52 1006.9
20260505235605 12 271 0.0 0.0 0.00 0.20 0.08 53 1006.7
20260505235106 12 276 0.0 0.0 0.00 0.20 0.08 53 1006.6
20260505234605 12 261 0.0 0.0 0.00 0.20 0.08 54 1006.4
20260505233605 12 267 0.0 0.0 0.00 0.23 0.08 57 1006.3
20260505231605 13 255 0.0 0.0 0.00 0.28 0.08 64 1006.3
20260505231105 13 207 0.0 0.0 0.00 0.28 0.08 64 1006.2
20260505230605 13 238 0.0 0.0 0.00 0.28 0.08 65 1006.3
20260505230106 13 237 0.0 0.0 0.00 0.28 0.08 65 1006.4
20260505225605 13 249 0.0 0.0 0.00 0.28 0.08 65 1006.3
20260505225105 13 250 0.0 0.0 0.00 0.28 0.08 65 1006.3
20260505224605 13 246 0.0 0.0 0.00 0.28 0.08 66 1006.3
20260505224105 13 231 0.0 0.0 0.00 0.28 0.08 66 1006.3
20260505223605 13 240 0.0 0.0 0.00 0.28 0.08 67 1006.3
20260505223105 13 249 0.0 0.0 0.00 0.28 0.08 67 1006.3
20260505222605 13 248 0.0 0.0 0.00 0.28 0.08 67 1006.3
20260505222105 13 248 0.0 0.0 0.00 0.28 0.08 67 1006.3
20260505220606 13 232 0.0 0.0 0.00 0.28 0.08 67 1006.4
20260505220105 13 240 0.0 0.0 0.00 0.28 0.08 66 1006.4
20260505215606 13 239 0.0 0.0 0.00 0.28 0.08 66 1006.4
20260505215105 13 239 0.0 0.0 0.00 0.28 0.08 66 1006.4
20260505214605 13 266 0.0 0.0 0.00 0.28 0.08 66 1006.4
20260505214105 13 301 0.0 0.0 0.00 0.28 0.08 66 1006.5
20260505213605 13 316 0.0 0.0 0.00 0.28 0.08 66 1006.4
20260505213106 13 269 0.0 0.0 0.00 0.28 0.08 66 1006.3
20260505212605 13 257 0.0 0.0 0.00 0.28 0.08 65 1006.3
20260505212105 13 280 0.0 0.0 0.00 0.28 0.08 65 1006.3
20260505211604 13 251 0.0 0.0 0.00 0.28 0.08 65 1006.3
20260505211105 13 240 0.0 0.0 0.00 0.28 0.08 65 1006.3
20260505210105 13 249 0.0 0.0 0.00 0.28 0.08 65 1006.3
20260505205105 13 267 0.0 0.0 0.00 0.28 0.08 65 1006.4
20260505204605 13 256 0.0 0.0 0.00 0.28 0.08 66 1006.3
20260505204105 13 248 0.0 0.0 0.00 0.28 0.08 67 1006.5
20260505203105 13 256 0.0 0.0 0.00 0.28 0.08 67 1006.7
20260505202605 13 258 0.0 0.0 0.00 0.28 0.08 67 1006.7
20260505202105 13 186 0.0 0.0 0.00 0.28 0.08 67 1006.7
20260505201105 13 227 0.0 0.0 0.00 0.28 0.08 67 1006.7
20260505200605 13 236 0.0 0.0 0.00 0.28 0.08 67 1006.7
20260505200105 13 257 0.0 0.0 0.00 0.28 0.08 67 1006.7
20260505195605 12 246 0.0 0.0 0.00 0.28 0.08 67 1006.7
20260505194605 12 255 0.0 0.0 0.00 0.28 0.08 68 1006.8
20260505193605 12 246 0.0 0.0 0.00 0.28 0.08 68 1006.7
20260505193105 13 191 0.0 0.0 0.00 0.28 0.08 69 1006.7
20260505192605 13 248 0.0 0.0 0.00 0.28 0.08 69 1006.7
20260505192105 13 228 0.0 0.0 0.00 0.28 0.08 68 1006.7
20260505191605 13 252 0.0 0.0 0.00 0.28 0.08 67 1006.9
20260505191105 13 253 0.0 0.0 0.00 0.28 0.08 65 1006.9
20260505190605 13 263 0.0 0.0 0.00 0.28 0.08 64 1007.0
20260505190105 13 265 0.0 0.0 0.00 0.28 0.08 64 1006.9
20260505185605 13 258 0.0 0.0 0.00 0.28 0.08 64 1006.9
20260505185105 13 236 0.0 0.0 0.00 0.28 0.08 63 1006.9
20260505184605 13 253 0.0 0.0 0.00 0.28 0.08 64 1006.8
20260505184105 13 251 0.0 0.0 0.00 0.28 0.08 66 1006.8
20260505183605 13 241 0.0 0.0 0.00 0.28 0.08 66 1006.7
20260505183105 13 245 0.0 0.0 0.00 0.28 0.08 67 1006.7
20260505182605 13 251 0.0 0.0 0.00 0.28 0.08 67 1006.5
20260505182105 13 233 0.0 0.0 0.00 0.28 0.08 68 1006.7
20260505181105 13 262 0.0 0.0 0.00 0.28 0.08 70 1006.6
20260505180605 13 302 0.0 0.0 0.00 0.28 0.08 71 1006.5
20260505180105 13 266 0.0 0.0 0.00 0.28 0.08 71 1006.5
20260505175605 13 252 0.0 0.0 0.00 0.28 0.08 72 1006.5
20260505175105 13 263 0.0 0.0 0.00 0.28 0.08 73 1006.3
20260505174605 13 252 0.0 0.0 0.00 0.28 0.08 72 1006.2
20260505174105 13 247 0.0 0.0 0.00 0.28 0.08 71 1006.2
20260505173105 13 309 0.0 0.0 0.00 0.28 0.08 69 1006.1
20260505172605 13 301 0.0 0.0 0.00 0.28 0.08 69 1006.2
20260505172105 13 322 0.0 0.0 0.00 0.28 0.08 68 1006.2
20260505171605 14 320 0.0 0.0 0.00 0.28 0.08 67 1006.1
20260505171105 14 292 0.0 0.0 0.00 0.28 0.08 65 1005.8
20260505170605 14 308 0.0 0.0 0.00 0.28 0.08 64 1005.8
20260505170105 14 312 0.0 0.0 0.00 0.28 0.08 62 1005.9
20260505165605 15 288 0.0 0.0 0.00 0.28 0.08 61 1005.9
20260505165105 15 297 0.0 0.0 0.00 0.28 0.08 60 1005.8
20260505164605 15 309 0.0 0.0 0.00 0.28 0.08 58 1005.9
20260505164104 15 294 0.0 0.0 0.00 0.28 0.08 56 1006.1